Regional Weather Roundup
Issued by NWS Bismarck, ND

Home | Current Version | Previous Version | Text Only | Print | Product List | Glossary On
Versions: 1 2 3 4 5 6 7 8 9 10 11 12 13 14 15 16 17 18 19 20 21 22 23 24 25 26 27 28 29 30 31 32 33 34 35 36 37 38 39 40 41 42 43 44 45 46 47 48 49 50
000
ASUS43 KBIS 050510
RWRBIS

NWR BROADCAST TEXT
NATIONAL WEATHER SERVICE BISMARCK ND
1200 AM CDT WED AUG 05 2015

NOTE: "FAIR" INDICATES FEW OR NO CLOUDS BELOW 12,000 FEET WITH NO
SIGNIFICANT WEATHER AND/OR OBSTRUCTIONS TO VISIBILITY.


CITY           SKY/WX    TMP DP  RH WIND       PRES   REMARKS
WILLISTON      CLOUDY    76  56  49 SE8       29.91R
MINOT          MOCLDY    64  52  64 E9        29.96F
MINOT AFB      MOCLDY    62  55  78 SE10      29.96S
BISMARCK       PTCLDY    69  61  75 E7        29.98R
DICKINSON      CLOUDY    69  60  73 SW9       29.98R
GARRISON         N/A     67  57  70 SE10      29.96S
HETTINGER ARPT CLOUDY    73  56  54 SW7       30.03R
JAMESTOWN      CLEAR     62  55  77 E8        30.02S
CROSBY         FAIR      66  55  68 E8        29.92S
HARVEY         FAIR      59  55  88 SE7       30.01S
HAZEN          FAIR      66  57  72 SE3       29.96S
LINTON         FAIR      66  59  77 SE12      29.99S
OAKES            N/A     59  57  94 E8        30.02F
STANLEY        FAIR      64  59  82 E10       29.97S
$$

CITY           SKY/WX    TMP DP  RH WIND       PRES   REMARKS
GRAND FORKS    PTCLDY    64  55  72 NE7       30.03S
GRAND FORKS AF PTCLDY    63  55  75 E7        30.04S
DEVILS LAKE    CLEAR     63  52  67 E9        30.03
FARGO          CLEAR     62  56  80 E3        30.02S
CAVALIER       FAIR      57  54  88 CALM      30.06S
GRAFTON        FAIR      59  55  88 NE7       30.05F
GWINNER        FAIR      61  55  82 E3        30.03S
LANGDON        FAIR      57  54  88 E9        30.07S
ROLLA          FAIR      57  54  88 SE7       30.06S
WALHALLA       FAIR      55  55 100 MISG      30.07S
$$

CITY           SKY/WX    TMP DP  RH WIND       PRES   REMARKS
ABERDEEN       PTCLDY    63  56  78 E8        30.01S
MOBRIDGE       MOCLDY    70  62  76 SE9       29.97R
BUFFALO          N/A     63  61  93 NE17G29   29.94F
RAPID CITY     CLOUDY    67  60  78 SE6       29.99R
GLASGOW        LGT RAIN  67  63  87 E5        29.91F
SIDNEY         CLOUDY   N/A N/A N/A S8        29.94S
WOLF POINT     LGT RAIN  69  65  86 N3        29.94R
GLENDIVE         N/A    N/A N/A N/A MISG        N/A
MILES CITY     MOCLDY    63  61  93 NE3       29.94S
BAKER          CLOUDY    64  61  90 E7        30.03S
$$

CITY           SKY/WX    TMP DP  RH WIND       PRES   REMARKS
BILLINGS       MOCLDY    67  51  56 SW3       30.02S
GREAT FALLS    PTCLDY    66  52  60 SE8       29.96R
REGINA         LGT RAIN  66  61  82 S13G18    29.94S
ESTEVAN        MOCLDY    66  54  63 SE16G23   29.93F
$$



USA.gov is the U.S. government's official web portal to all federal, state and local government web resources and services.